Mesa, AZ

1:35 PM MST on December 02, 2016 (GMT -0700)
Phoenix-Mesa Gateway Airport

Weather History for KIWA - March, 2014

Change the Weather History Date:

Saturday, March 29, 2014

  Actual Average Record
Temperature  
Mean Temperature 67 °F -  
Max Temperature 84 °F 75 °F 96 °F (2004)
Min Temperature 50 °F 51 °F 44 °F (2007)
Cooling Degree Days 2    
Growing Degree Days 17 (Base 50)    
Moisture  
Dew Point 28 °F    
Average Humidity 31    
Maximum Humidity 47    
Minimum Humidity 11    
Precipitation  
Precipitation 0.00 in - - ()
Sea Level Pressure  
Sea Level Pressure 30.03 in    
Wind  
Wind Speed 6 mph (ESE)    
Max Wind Speed 9 mph    
Max Gust Speed -    
Visibility 12 miles    
Events      
Averages and records for this station are not official NWS values.
T = Trace of Precipitation, MM = Missing Value Source: NWS Daily Summary

Daily Weather History Graph

Daily Weather History Graph

Search for Another Location

Airport or City:

Trip Planner

Search our weather history database for the weather conditions in past years. The results will help you decide how hot, cold, wet, or windy it might be!

Date:

Astronomy

Mar. 29, 2014 Rise Set
Actual Time 6:18 AM MST 6:44 PM MST
Civil Twilight 5:53 AM MST 7:09 PM MST
Nautical Twilight 5:24 AM MST 7:39 PM MST
Astronomical Twilight 4:54 AM MST 8:08 PM MST
Moon 5:25 AM MST (3/29) 5:55 PM MST (3/29)
Length of Visible Light 13h 16m
Length of Day
12h 26m
Waning Crescent, 1% of the Moon is Illuminated
Mar 29
Waning Crescent
Mar 30
New
Apr 7
First Quarter
Apr 15
Full
Apr 22
Last Quarter

Hourly Weather History & Observations

Time (MST) Temp. Dew Point Humidity Pressure Visibility Wind Dir Wind Speed Gust Speed Precip Events Conditions
12:15 AM 57.2 °F 28.4 °F 33% 30.12 in 10.0 mi East 5.8 mph - N/A   Clear
12:35 AM 57.2 °F 28.4 °F 33% 30.13 in 10.0 mi East 6.9 mph - N/A   Clear
12:55 AM 55.4 °F 26.6 °F 33% 30.12 in 10.0 mi ESE 4.6 mph - N/A   Clear
1:15 AM 53.6 °F 30.2 °F 41% 30.12 in 10.0 mi ESE 6.9 mph - N/A   Clear
1:35 AM 51.8 °F 30.2 °F 44% 30.12 in 10.0 mi SE 6.9 mph - N/A   Clear
1:55 AM 51.8 °F 32.0 °F 47% 30.11 in 10.0 mi SE 8.1 mph - N/A   Clear
2:15 AM 51.8 °F 32.0 °F 47% 30.10 in 10.0 mi SSE 8.1 mph - N/A   Clear
2:35 AM 51.8 °F 32.0 °F 47% 30.10 in 10.0 mi SE 6.9 mph - N/A   Clear
2:55 AM 51.8 °F 32.0 °F 47% 30.10 in 10.0 mi ESE 6.9 mph - N/A   Clear
3:15 AM 51.8 °F 32.0 °F 47% 30.10 in 10.0 mi ESE 5.8 mph - N/A   Clear
3:35 AM 51.8 °F 32.0 °F 47% 30.09 in 10.0 mi ESE 6.9 mph - N/A   Clear
3:55 AM 51.8 °F 32.0 °F 47% 30.09 in 10.0 mi ESE 8.1 mph - N/A   Clear
4:15 AM 51.8 °F 32.0 °F 47% 30.09 in 10.0 mi East 8.1 mph - N/A   Clear
4:35 AM 51.8 °F 30.2 °F 44% 30.10 in 10.0 mi East 8.1 mph - N/A   Clear
4:47 AM 53.6 °F 30.2 °F 41% 30.09 in 20.0 mi East 6.9 mph - N/A   Partly Cloudy
4:55 AM 51.8 °F 30.2 °F 44% 30.10 in 10.0 mi East 5.8 mph - N/A   Clear
5:15 AM 50.0 °F 28.4 °F 43% 30.10 in 10.0 mi Calm Calm - N/A   Clear
5:35 AM 50.0 °F 30.2 °F 47% 30.11 in 10.0 mi East 4.6 mph - N/A   Clear
5:47 AM 50.0 °F 28.4 °F 43% 30.12 in 20.0 mi East 5.8 mph - N/A   Partly Cloudy
6:47 AM 51.8 °F 30.2 °F 44% 30.13 in 45.0 mi East 6.9 mph - N/A   Partly Cloudy
7:52 AM 57.2 °F 30.2 °F 36% 30.14 in 30.0 mi ESE 6.9 mph - N/A   Partly Cloudy
8:50 AM 62.6 °F 33.8 °F 34% 30.13 in 30.0 mi SSE 6.9 mph - N/A   Partly Cloudy
9:47 AM 66.2 °F 33.8 °F 30% 30.13 in 35.0 mi Variable 4.6 mph - N/A   Clear
10:47 AM 73.4 °F 32.0 °F 22% 30.12 in 20.0 mi ESE 4.6 mph - N/A   Clear
11:47 AM 78.8 °F 28.4 °F 16% 30.09 in 30.0 mi Variable 4.6 mph - N/A   Partly Cloudy
12:47 PM 73.4 °F 26.6 °F 18% 30.06 in 30.0 mi West 4.6 mph - N/A   Partly Cloudy
1:47 PM 80.6 °F 26.6 °F 14% 30.02 in 30.0 mi SSW 5.8 mph - N/A   Partly Cloudy
2:47 PM 80.6 °F 24.8 °F 13% 29.98 in 20.0 mi Calm Calm - N/A   Scattered Clouds
3:50 PM 84.2 °F 24.8 °F 11% 29.96 in 30.0 mi NW 4.6 mph - N/A   Scattered Clouds
4:47 PM 84.2 °F 24.8 °F 11% 29.93 in 35.0 mi WSW 9.2 mph - N/A   Partly Cloudy
5:47 PM 80.6 °F 23.0 °F 12% 29.92 in 35.0 mi West 3.5 mph - N/A   Partly Cloudy
6:47 PM 78.8 °F 21.2 °F 12% 29.93 in 20.0 mi West 3.5 mph - N/A   Partly Cloudy
7:50 PM 73.4 °F 26.6 °F 18% 29.93 in 20.0 mi Calm Calm - N/A   Partly Cloudy
7:55 PM 71.6 °F 28.4 °F 20% 29.94 in 10.0 mi SW 4.6 mph - N/A   Clear
8:15 PM 71.6 °F 26.6 °F 19% 29.94 in 10.0 mi SW 4.6 mph - N/A   Clear
8:35 PM 69.8 °F 26.6 °F 20% 29.94 in 10.0 mi Calm Calm - N/A   Clear
8:51 PM 66.2 °F 26.6 °F 23% 29.95 in 20.0 mi East 3.5 mph - N/A   Partly Cloudy
8:55 PM 66.2 °F 28.4 °F 24% 29.95 in 10.0 mi ESE 3.5 mph - N/A   Clear
9:15 PM 64.4 °F 28.4 °F 26% 29.95 in 10.0 mi East 3.5 mph - N/A   Clear
9:35 PM 64.4 °F 26.6 °F 24% 29.95 in 10.0 mi ENE 4.6 mph - N/A   Clear
9:47 PM 64.4 °F 24.8 °F 22% 29.95 in 20.0 mi Calm Calm - N/A   Partly Cloudy
9:55 PM 64.4 °F 26.6 °F 24% 29.94 in 10.0 mi ENE 5.8 mph - N/A   Clear
10:15 PM 62.6 °F 23.0 °F 22% 29.94 in 10.0 mi East 8.1 mph - N/A   Clear
10:35 PM 62.6 °F 24.8 °F 24% 29.94 in 10.0 mi ESE 4.6 mph - N/A   Clear
10:50 PM 62.6 °F 24.8 °F 24% 29.94 in 20.0 mi Calm Calm - N/A   Partly Cloudy
10:55 PM 62.6 °F 26.6 °F 26% 29.94 in 10.0 mi East 4.6 mph - N/A   Clear
11:15 PM 60.8 °F 26.6 °F 27% 29.93 in 10.0 mi ESE 4.6 mph - N/A   Clear
11:35 PM 60.8 °F 28.4 °F 29% 29.93 in 10.0 mi ESE 6.9 mph - N/A   Clear
11:47 PM 59.0 °F 28.4 °F 31% 29.93 in 20.0 mi ESE 3.5 mph - N/A   Partly Cloudy
11:55 PM 59.0 °F 30.2 °F 34% 29.93 in 10.0 mi SE 8.1 mph - N/A   Clear